Domov               UVHVVR             MKGP            O straneh              
ZDRAVSTVENO VARSTVO RASTLIN
  MREŽA AGROMET. POSTAJ
 ► PROGNOSTIČNA OBVESTILA
AGROMETEOROLOŠKI PODATKI -
ARSO
OBVLADOVANJE TVEGANJ ZARADI
NEUGODNIH VREMENSKIH RAZMER
  ► NARAVNE NESREČE
  ► SUŠA/MOČA
  ► NAMAKANJE
  ► ŽLED (gozdarstvo)
KARTOGRAFSKI PRIKAZI
SPLETNE POVEZAVE
PROJEKTI IN PUBLIKACIJE

AGROMETEOROLOŠKA MREŽA: VREMENSKE POSTAJE IN FENOLOŠKA OPAZOVANJA

Pregled podatkov za lokacijo Črnova (Gradišnik), meteorološka postaja 22213

Pregled senzorjev na lokaciji

ID Ime Zadnja
vrednost
Datum
zadnje
spremembe
Tip
senzorja
4194 Temperatura 2 m (°C) 3,93 °C 14.12.2017 06:30 Generic -40 - +60 °C
4195 Relativna vlaga 2 m (% RH) 82,69 % RH 14.12.2017 06:30 Generic 0 - 100 %
4196 Omočenost lista (U) 2 U 14.12.2017 06:30 A730WET
4197 Padavine (mm) 0,6 mm 14.12.2017 06:30 Generic 0.2 mm

Pregled podatkov zadnjih 24 ur

Zap.
št.
Datum in čas Črnova (Gradišnik)
Omočenost
lista
Padavine Relativna
vlaga
2
m
Temperatura
2
m
0 14.12.2017 06:30 2 0,6 82,69 3,93
1 14.12.2017 06:00 3 0,8 82,52 3,96
2 14.12.2017 05:30 4 0,8 84,3 3,74
3 14.12.2017 05:00 4 0,4 84,27 3,59
4 14.12.2017 04:30 5 0,2 81,88 3,79
5 14.12.2017 04:00 6 0,2 82,91 3,39
6 14.12.2017 03:30 9 0 84,74 2,95
7 14.12.2017 03:00 10 0,2 92,43 1,61
8 14.12.2017 02:30 9 0 94,77 1,34
9 14.12.2017 02:00 3 0 95,43 0,85
10 14.12.2017 01:30 2 0 93,48 1,17
11 14.12.2017 01:00 2 0 95,38 0,63
12 14.12.2017 00:30 1 0 94,53 0,46
13 14.12.2017 00:00 1 0 96 0,15
14 13.12.2017 23:30 1 0 95,9 0,22
15 13.12.2017 23:00 1 0 95,29 0,37
16 13.12.2017 22:30 1 0 96,61 0,15
17 13.12.2017 22:00 1 0 96,41 -0,2
18 13.12.2017 21:30 1 0 94,7 0,05
19 13.12.2017 21:00 1 0 97,44 0,17
20 13.12.2017 20:30 1 0 99,93 0,12
21 13.12.2017 20:00 2 0 99,93 0
22 13.12.2017 19:30 1 0 99,93 -0,02
23 13.12.2017 19:00 1 0 99,93 -0,15
24 13.12.2017 18:30 1 0 99,93 -0,22
25 13.12.2017 18:00 1 0 99,9 -0,44
26 13.12.2017 17:30 1 0 99,83 -0,27
27 13.12.2017 17:00 2 0 99,71 0,17
28 13.12.2017 16:30 3 0 99,46 0,56
29 13.12.2017 16:00 3 0 99,37 0,9
30 13.12.2017 15:30 3 0 99,34 1,03
31 13.12.2017 15:00 4 0 98,51 0,9
32 13.12.2017 14:30 4 0 92,87 2,3
33 13.12.2017 14:00 9 0 95,58 2,05
34 13.12.2017 13:30 10 0 96,31 1,73
35 13.12.2017 13:00 9 0 96 1,54
36 13.12.2017 12:30 8 0 94,7 1,42
37 13.12.2017 12:00 6 0 95,73 1,34
38 13.12.2017 11:30 7 0 96,97 1,17
39 13.12.2017 11:00 6 0 98,63 0,73
40 13.12.2017 10:30 9 0 99,02 0,46
41 13.12.2017 10:00 8 0 99,8 0,29
42 13.12.2017 09:30 8 0 99,9 0,07
43 13.12.2017 09:00 7 0 99,93 -0,05
44 13.12.2017 08:30 5 0 99,9 -0,1
45 13.12.2017 08:00 4 0 99,88 -0,15
46 13.12.2017 07:30 4 0 99,88 -0,15
© 2011 Ministrstvo za kmetijstvo, gozdarstvo in prehrano. Vse pravice pridržane.